| time (UTC) | temp F | wind direction | speed MPH | gust MPH | rain 1hr in | rain 24hr in | rain mn in | humidity % | barometer mb |
| 20260509114522 | 49 | 105 | 0.0 | 0.0 | 0.00 | 0.00 | 0.00 | 59 | 1011.7 |
| 20260509113100 | 49 | 105 | 0.0 | 0.0 | 0.00 | 0.00 | 0.00 | 59 | 1011.6 |
| 20260509111543 | 49 | 105 | 0.0 | 0.0 | 0.00 | 0.00 | 0.00 | 59 | 1011.3 |
| 20260509110003 | 50 | 105 | 0.0 | 0.0 | 0.00 | 0.00 | 0.00 | 59 | 1011.3 |
| 20260509104549 | 51 | 105 | 0.0 | 0.0 | 0.00 | 0.00 | 0.00 | 59 | 1011.3 |
| 20260509103033 | 51 | 105 | 0.0 | 0.0 | 0.00 | 0.00 | 0.00 | 58 | 1011.2 |
| 20260509101527 | 52 | 105 | 0.0 | 0.0 | 0.00 | 0.00 | 0.00 | 56 | 1011.2 |
| 20260509100011 | 52 | 105 | 0.0 | 0.0 | 0.00 | 0.00 | 0.00 | 55 | 1010.7 |
| 20260509094555 | 52 | 105 | 0.0 | 0.0 | 0.00 | 0.00 | 0.00 | 52 | 1010.4 |
| 20260509093054 | 52 | 105 | 0.0 | 0.0 | 0.00 | 0.00 | 0.00 | 51 | 1010.5 |
| 20260509091539 | 53 | 105 | 0.0 | 0.0 | 0.00 | 0.00 | 0.00 | 50 | 1010.5 |
| 20260509090007 | 53 | 107 | 0.0 | 0.0 | 0.00 | 0.00 | 0.00 | 49 | 1010.4 |
| 20260509084557 | 53 | 107 | 0.0 | 0.0 | 0.00 | 0.00 | 0.00 | 49 | 1010.3 |
| 20260509083049 | 53 | 107 | 0.0 | 0.0 | 0.00 | 0.00 | 0.00 | 48 | 1010.2 |
| 20260509081539 | 54 | 107 | 0.0 | 0.0 | 0.00 | 0.00 | 0.00 | 48 | 1010.0 |
| 20260509080048 | 54 | 107 | 0.0 | 0.0 | 0.00 | 0.00 | 0.00 | 47 | 1009.7 |
| 20260509074506 | 55 | 107 | 0.0 | 0.0 | 0.00 | 0.00 | 0.00 | 46 | 1009.6 |
| 20260509073041 | 55 | 107 | 0.0 | 0.0 | 0.00 | 0.00 | 0.00 | 45 | 1009.6 |
| 20260509071534 | 55 | 107 | 0.0 | 0.0 | 0.00 | 0.00 | 0.00 | 44 | 1009.3 |
| 20260509070010 | 55 | 107 | 0.0 | 0.0 | 0.00 | 0.00 | 0.00 | 46 | 1009.4 |
| 20260509064609 | 56 | 107 | 0.0 | 0.0 | 0.00 | 0.00 | 0.00 | 44 | 1009.3 |
| 20260509063055 | 57 | 107 | 0.0 | 0.0 | 0.00 | 0.00 | 0.00 | 43 | 1008.7 |
| 20260509061554 | 58 | 107 | 0.0 | 0.0 | 0.00 | 0.00 | 0.00 | 41 | 1008.7 |
| 20260509060041 | 59 | 107 | 0.0 | 0.0 | 0.00 | 0.00 | 0.00 | 39 | 1008.7 |
| 20260509054539 | 60 | 107 | 0.0 | 0.0 | 0.00 | 0.00 | 0.00 | 39 | 1008.6 |
| 20260509053020 | 60 | 107 | 1.0 | 0.0 | 0.00 | 0.00 | 0.00 | 38 | 1008.5 |
| 20260509051604 | 60 | 109 | 0.0 | 0.0 | 0.00 | 0.00 | 0.00 | 39 | 1008.5 |
| 20260509050046 | 60 | 109 | 0.0 | 0.0 | 0.00 | 0.00 | 0.00 | 37 | 1008.5 |
| 20260509044538 | 61 | 109 | 0.0 | 0.0 | 0.00 | 0.00 | 0.00 | 36 | 1008.5 |
| 20260509043026 | 62 | 109 | 0.0 | 0.0 | 0.00 | 0.00 | 0.00 | 36 | 1008.2 |
| 20260509041604 | 62 | 109 | 0.0 | 0.0 | 0.00 | 0.00 | 0.00 | 35 | 1008.3 |
| 20260509040054 | 62 | 109 | 0.0 | 0.0 | 0.00 | 0.00 | 0.00 | 35 | 1008.1 |
| 20260509034546 | 63 | 109 | 0.0 | 0.0 | 0.00 | 0.00 | 0.00 | 34 | 1008.0 |
| 20260509033116 | 64 | 109 | 0.0 | 0.0 | 0.00 | 0.00 | 0.00 | 33 | 1007.7 |
| 20260509031551 | 64 | 109 | 0.0 | 0.0 | 0.00 | 0.00 | 0.00 | 32 | 1007.6 |
| 20260509030036 | 65 | 109 | 0.0 | 0.0 | 0.00 | 0.00 | 0.00 | 32 | 1007.5 |
| 20260509024522 | 66 | 109 | 0.0 | 0.0 | 0.00 | 0.00 | 0.00 | 31 | 1007.5 |
| 20260509023021 | 67 | 109 | 0.0 | 0.0 | 0.00 | 0.00 | 0.00 | 30 | 1007.3 |
| 20260509021506 | 69 | 109 | 0.0 | 0.0 | 0.00 | 0.00 | 0.00 | 29 | 1007.4 |
| 20260509020052 | 71 | 109 | 0.0 | 0.0 | 0.00 | 0.00 | 0.00 | 26 | 1007.4 |
| 20260509014537 | 73 | 109 | 0.0 | 0.0 | 0.00 | 0.00 | 0.00 | 23 | 1007.5 |
| 20260509013017 | 75 | 109 | 0.0 | 0.0 | 0.00 | 0.00 | 0.00 | 23 | 1007.6 |
| 20260509011505 | 74 | 109 | 1.0 | 0.0 | 0.00 | 0.00 | 0.00 | 22 | 1007.8 |
| 20260509010054 | 75 | 49 | 1.0 | 0.0 | 0.00 | 0.00 | 0.00 | 22 | 1007.9 |
| 20260509004530 | 75 | 101 | 2.0 | 0.0 | 0.00 | 0.00 | 0.00 | 22 | 1008.0 |
| 20260509003032 | 75 | 34 | 2.0 | 0.0 | 0.00 | 0.00 | 0.00 | 22 | 1008.2 |
| 20260509001523 | 75 | 26 | 1.0 | 0.0 | 0.00 | 0.00 | 0.00 | 22 | 1008.5 |
| 20260509000003 | 75 | 5 | 1.0 | 0.0 | 0.00 | 0.00 | 0.00 | 22 | 1008.5 |
| 20260508234501 | 77 | 342 | 3.0 | 0.0 | 0.00 | 0.00 | 0.00 | 21 | 1008.6 |
| 20260508233101 | 77 | 56 | 1.0 | 0.0 | 0.00 | 0.00 | 0.00 | 21 | 1008.5 |
| 20260508231536 | 77 | 209 | 2.0 | 0.0 | 0.00 | 0.00 | 0.00 | 21 | 1008.6 |
| 20260508230014 | 77 | 178 | 2.0 | 0.0 | 0.00 | 0.00 | 0.00 | 22 | 1008.6 |
| 20260508224520 | 77 | 194 | 2.0 | 0.0 | 0.00 | 0.00 | 0.00 | 21 | 1009.0 |
| 20260508223059 | 76 | 313 | 3.0 | 0.0 | 0.00 | 0.00 | 0.00 | 22 | 1009.2 |
| 20260508221551 | 77 | 223 | 2.0 | 0.0 | 0.00 | 0.00 | 0.00 | 22 | 1009.4 |
| 20260508220019 | 76 | 9 | 3.0 | 0.0 | 0.00 | 0.00 | 0.00 | 22 | 1009.6 |
| 20260508214601 | 76 | 219 | 3.0 | 0.0 | 0.00 | 0.00 | 0.00 | 23 | 1009.6 |
| 20260508213051 | 76 | 312 | 3.0 | 0.0 | 0.00 | 0.00 | 0.00 | 22 | 1010.1 |
| 20260508211551 | 76 | 253 | 2.0 | 0.0 | 0.00 | 0.00 | 0.00 | 22 | 1010.3 |
| 20260508210041 | 75 | 24 | 4.0 | 0.0 | 0.00 | 0.00 | 0.00 | 24 | 1010.5 |
| 20260508204518 | 75 | 265 | 2.0 | 0.0 | 0.00 | 0.00 | 0.00 | 22 | 1010.6 |
| 20260508203032 | 75 | 268 | 2.0 | 0.0 | 0.00 | 0.00 | 0.00 | 22 | 1010.6 |
| 20260508201502 | 74 | 203 | 3.0 | 0.0 | 0.00 | 0.00 | 0.00 | 24 | 1010.6 |
| 20260508194542 | 73 | 30 | 3.0 | 0.0 | 0.00 | 0.00 | 0.00 | 25 | 1010.9 |
| 20260508193015 | 71 | 200 | 3.0 | 0.0 | 0.00 | 0.00 | 0.00 | 25 | 1011.0 |
| 20260508191509 | 72 | 198 | 3.0 | 0.0 | 0.00 | 0.00 | 0.00 | 27 | 1011.2 |
| 20260508190057 | 71 | 209 | 3.0 | 0.0 | 0.00 | 0.00 | 0.00 | 26 | 1011.5 |
| 20260508184551 | 71 | 244 | 3.0 | 0.0 | 0.00 | 0.00 | 0.00 | 26 | 1011.5 |
| 20260508183024 | 71 | 217 | 3.0 | 0.0 | 0.00 | 0.00 | 0.00 | 27 | 1011.7 |
| 20260508181510 | 71 | 177 | 3.0 | 0.0 | 0.00 | 0.00 | 0.00 | 26 | 1011.7 |
| 20260508180100 | 71 | 163 | 1.0 | 0.0 | 0.00 | 0.00 | 0.00 | 28 | 1011.7 |
| 20260508174547 | 70 | 163 | 2.0 | 0.0 | 0.00 | 0.00 | 0.00 | 29 | 1011.8 |
| 20260508173020 | 70 | 186 | 3.0 | 0.0 | 0.00 | 0.00 | 0.00 | 32 | 1011.8 |
| 20260508171555 | 70 | 57 | 1.0 | 0.0 | 0.00 | 0.00 | 0.00 | 28 | 1011.7 |
| 20260508170058 | 70 | 29 | 2.0 | 0.0 | 0.00 | 0.00 | 0.00 | 29 | 1011.7 |
| 20260508164544 | 69 | 29 | 2.0 | 0.0 | 0.00 | 0.00 | 0.00 | 32 | 1011.6 |
| 20260508163002 | 69 | 37 | 1.0 | 0.0 | 0.00 | 0.00 | 0.00 | 33 | 1011.6 |
| 20260508161603 | 68 | 39 | 1.0 | 0.0 | 0.00 | 0.00 | 0.00 | 34 | 1011.5 |
| 20260508160048 | 68 | 29 | 1.0 | 0.0 | 0.00 | 0.00 | 0.00 | 33 | 1011.3 |
| 20260508154543 | 67 | 29 | 0.0 | 0.0 | 0.00 | 0.00 | 0.00 | 38 | 1011.4 |
| 20260508153004 | 66 | 29 | 0.0 | 0.0 | 0.00 | 0.00 | 0.00 | 37 | 1011.3 |
| 20260508151558 | 65 | 29 | 0.0 | 0.0 | 0.00 | 0.00 | 0.00 | 39 | 1011.3 |
| 20260508150037 | 62 | 29 | 0.0 | 0.0 | 0.00 | 0.00 | 0.00 | 43 | 1011.3 |
| 20260508144524 | 60 | 29 | 0.0 | 0.0 | 0.00 | 0.00 | 0.00 | 49 | 1011.2 |
| 20260508143018 | 58 | 29 | 0.0 | 0.0 | 0.00 | 0.00 | 0.00 | 48 | 1011.3 |
| 20260508141603 | 57 | 29 | 0.0 | 0.0 | 0.00 | 0.00 | 0.00 | 51 | 1011.1 |
| 20260508140047 | 55 | 29 | 0.0 | 0.0 | 0.00 | 0.00 | 0.00 | 56 | 1011.2 |
| 20260508134520 | 52 | 29 | 0.0 | 0.0 | 0.00 | 0.00 | 0.00 | 61 | 1011.2 |
| 20260508133105 | 50 | 29 | 0.0 | 0.0 | 0.00 | 0.00 | 0.00 | 61 | 1010.9 |
| 20260508131552 | 49 | 29 | 0.0 | 0.0 | 0.00 | 0.00 | 0.00 | 60 | 1010.8 |
| 20260508130042 | 49 | 29 | 0.0 | 0.0 | 0.00 | 0.00 | 0.00 | 60 | 1010.6 |
| 20260508124529 | 49 | 29 | 0.0 | 0.0 | 0.00 | 0.00 | 0.00 | 60 | 1010.4 |
| 20260508123019 | 49 | 29 | 0.0 | 0.0 | 0.00 | 0.00 | 0.00 | 60 | 1010.3 |
| 20260508121611 | 49 | 29 | 0.0 | 0.0 | 0.00 | 0.00 | 0.00 | 58 | 1010.0 |
| 20260508120037 | 50 | 29 | 0.0 | 0.0 | 0.00 | 0.00 | 0.00 | 58 | 1010.0 |